Flag for Germany Weather past 2 weeks in Friedrichshafen, Baden-Württemberg, Germany

Now
45 °F

Quite cool.


Feels Like: 43 °F
Forecast: 44 / 67 °F
Wind: 3 mph from North

Location: Friedrichshafen Airport

Current Time: Apr 22, 2015 at 1:47:25 AM

Latest Report: Apr 22, 2015 at 12:50 AM


Visibility: N/A

Pressure: 30.36 "Hg

Humidity: 66%

Dew point: 34 °F

Location of FriedrichshafenLocation

Historic Weather in Friedrichshafen — Graph

°F

Friedrichshafen temperature yesterday

Maximum temperature yesterday: 68 °F (at 3:50 PM)
Minimum temperature yesterday: 37 °F (at 5:20 AM)
Average temperature yesterday: 55 °F

Past Weeks' High & Low Weather Summary

 TemperatureHumidityPressure
High72 °F (Apr 15, 3:50 PM)94% (Apr 17, 9:50 PM)30.57 "Hg (Apr 17, 9:50 PM)
Low27 °F (Apr 8, 4:20 AM)15% (Apr 15, 5:20 PM)29.92 "Hg (Apr 16, 5:50 PM)
Average51 °F54%30.26 "Hg
* Reported Apr 7 12:20 AM — Apr 22 12:20 AM, Friedrichshafen, Weather by CustomWeather, © 2015

Note: Actual official high and low records may vary slightly from our data, if they occured in-between our weather recording intervals... More about our weather records

Advertising

Friedrichshafen weather history for previous 24 hours

 ConditionsComfort  
Time TempWeatherWind HumidityBarometerVisibility
12:20 AM
Wed, Apr 22
45 °FQuite cool.7 mph66%30.36 "HgN/A
11:50 PM
Tue, Apr 21
45 °FQuite cool.3 mph66%30.36 "HgN/A
11:20 PM50 °FCool.3 mph54%30.36 "HgN/A
10:50 PM50 °FCool.No wind54%30.36 "HgN/A
10:20 PM52 °FCool.2 mph50%30.33 "HgN/A
9:50 PM52 °FCool.2 mph50%30.33 "HgN/A
9:20 PM54 °FClear.3 mph44%30.33 "Hg10 mi
8:50 PM61 °FSunny.1 mph27%30.33 "Hg10 mi
8:20 PM63 °FSunny.1 mph25%30.33 "Hg10 mi
7:50 PM66 °FSunny.6 mph22%30.30 "Hg10 mi
7:20 PM66 °FSunny.6 mph24%30.30 "Hg10 mi
6:50 PM68 °FSunny.7 mph21%30.30 "Hg10 mi
6:20 PM68 °FMild.8 mph23%30.30 "HgN/A
5:50 PM68 °FSunny.6 mph24%30.30 "Hg10 mi
5:20 PM68 °FPassing clouds.7 mph24%30.30 "HgN/A
4:50 PM68 °FPassing clouds.6 mph20%30.33 "HgN/A
4:20 PM68 °FSunny.13 mph21%30.33 "Hg10 mi
3:50 PM68 °FSunny.12 mph24%30.33 "Hg10 mi
3:20 PM66 °FPassing clouds.10 mph22%30.33 "HgN/A
2:50 PM66 °FPassing clouds.10 mph26%30.33 "HgN/A
2:20 PM66 °FPassing clouds.8 mph26%30.33 "HgN/A
1:50 PM66 °FPassing clouds.10 mph26%30.36 "HgN/A
1:20 PM66 °FSunny.13 mph26%30.36 "Hg10 mi
12:50 PM63 °FPassing clouds.10 mph30%30.36 "HgN/A
12:20 PM63 °FSunny.10 mph32%30.36 "Hg10 mi
11:50 AM63 °FPassing clouds.7 mph34%30.36 "HgN/A
11:20 AM61 °FSunny.5 mph36%30.36 "Hg10 mi
10:50 AM59 °FSunny.5 mph39%30.36 "Hg10 mi
10:20 AM57 °FSunny.6 mph41%30.36 "Hg10 mi
9:50 AM55 °FSunny.6 mph44%30.36 "Hg10 mi
9:20 AM52 °FSunny.6 mph50%30.36 "Hg10 mi
8:50 AM50 °FPassing clouds.6 mph54%30.36 "HgN/A
8:20 AM46 °FPassing clouds.6 mph62%30.36 "HgN/A
7:20 AM41 °FClear.2 mph70%30.36 "Hg10 mi
6:50 AM37 °FClear.3 mph81%30.33 "Hg10 mi
6:20 AM41 °FClear.5 mph66%30.33 "Hg10 mi
5:20 AM37 °FChilly.5 mph81%30.30 "HgN/A
4:50 AM41 °FQuite cool.5 mph70%30.30 "HgN/A
4:20 AM41 °FQuite cool.1 mph70%30.30 "HgN/A
3:50 AM43 °FQuite cool.6 mph66%30.30 "HgN/A
3:20 AM41 °FQuite cool.5 mph70%30.30 "HgN/A
2:50 AM41 °FQuite cool.3 mph70%30.30 "HgN/A
2:20 AM43 °FQuite cool.5 mph66%30.30 "HgN/A
1:50 AM46 °FCool.5 mph53%30.30 "HgN/A
1:20 AM48 °FCool.7 mph50%30.30 "HgN/A
Weather by CustomWeather, © 2015

See weather overviewHow to use our weather pages